Terminal Aerodrome Forecast
Issued by NWS Pittsburgh, PA

Current Version | Previous Version | Graphics & Text | Print | Product List | Glossary On
Versions: 1 2 3 4 5 6 7 8 9 10 11 12 13 14 15 16 17 18 19 20 21 22 23 24 25 26 27 28 29 30
000
FTUS41 KPBZ 042355
TAFPIT
TAF
KPIT 042355Z 0500/0606 27007KT P6SM -SHRA BKN070
      TEMPO 0500/0501 31020G28KT
     FM050200 26003KT 5SM BR OVC050
     FM051200 24007KT 5SM -SHRA BR OVC025
     FM060000 25004KT P6SM BKN100=

USA.gov is the U.S. government's official web portal to all federal, state and local government web resources and services.